Weather in Komsomolsk-na-Pechore

Russia / Komi Republic     62°08′16″N   56°35′58″E
temp.,
°C
wind,
m/s
gust,
m/s
humid.,
%
clouds,
%
prec.,
mm/h
press.,
hPa
HPBL,
m
8 august, mon
mon800:00+21ssw276794 0.0 1018159
03:00+20ssw2768100 0.0 1017169
06:00+22sw386257 0.0 1018306
09:00+27sw464426 0.0 10171430
12:00+29wsw453591 0.0 10172708
15:00+27w464833 0.0 10171057
18:00+24wsw376490 0.3 1018380
21:00+18nw24785 0.3 101981
9 august, tue
tue900:00+16nnw22825 0.0 102029
03:00+14nnw2285100 0.0 102124
06:00+18n24775 0.0 1022340
09:00+22nne3351100 0.0 10221214
12:00+24n2241100 0.0 10211988
15:00+23n333642 0.0 10211750
18:00+20nne265188 0.0 1021184
21:00+16ne256198 0.0 102288
10 august, wed
wed1000:00+14nne2859100 0.0 1022173
03:00+14nne3857100 0.0 1021195
06:00+16nne3857100 0.0 1021274
09:00+20ne4543100 0.0 1021861
12:00+20ese3552100 0.1 1020858
15:00+14e2594100 0.8 1019145
18:00+14nne2696100 0.4 1018241
21:00+14n3798100 1.5 1017310
11 august, thu
thu1100:00+13n2599100 6.1 1015296
03:00+12n3799100 9.7 1014326
06:00+13n3799100 0.2 1014438
09:00+13n369793 0.3 1014482
12:00+14nnw389087 0.1 1015577
15:00+17n366887 0.1 1014984
18:00+17n24683 0.0 1014122
21:00+11e11890 0.0 101310
12 august, fri
fri1200:00+11ssw2383100 0.0 101356
03:00+13sw2679100 0.0 1011152
06:00+14w3873100 0.0 1011382
09:00+13sw3895100 0.4 1010393
12:00+14sw3896100 0.8 1008600
15:00+14wsw3898100 2.4 1007587
18:00+13w4997100 1.5 1007568
21:00+13w311975 1.5 1007445